Location: downtown San Diego
(32.7310°N, 117.1990°W)
Time: 17:14:49
(UTC-08:00)

Cosmos 2369 Rocket - Pass Details

Date: 12 July 2018
Orbit: 827 x 854 km, 71.0° (Epoch: 13 December)

Event Time Altitude Azimuth Distance (km) Brightness Sun altitude
Rises 21:05:35 0° 217° (SW) 3,389 5.4 -12.8°
Reaches altitude 10° 21:08:09 10° 225° (SW) 2,454 4.7 -13.2°
Maximum altitude 21:13:27 42° 295° (WNW) 1,188 3.6 -14.1°
Drops below altitude 10° 21:18:45 10° 5° (N) 2,448 5.1 -15.0°
Sets 21:21:20 0° 13° (NNE) 3,382 5.7 -15.4°
